This demonstration page uses our WeatherBlox Daily Observations layout. Learn more.

39.29038, -76.61219

Hourly Observations for December 7, 2018

Temp ( °F °C ) Dew Point ( °F °C ) Humidity (%) Winds ( mph kmh ) Pressure ( in mb ) Visibility ( mi km ) Precip ( " mm )
12:54 am 00:54 undefined 39 3.9 22 -5.6 50 50 undefined N/A 30.21 1023 N/A 0 0
1:54 am 01:54 undefined 38 3.3 22 -5.6 52 52 undefined N/A 30.24 1024 N/A 0 0
2:54 am 02:54 undefined 37 2.8 22 -5.6 54 54 undefined N/A 30.24 1024 N/A 0 0
3:54 am 03:54 undefined 36 2.2 23 -5 59 59 undefined N/A 30.27 1025 N/A 0 0
4:54 am 04:54 undefined 38 3.3 23 -5 55 55 undefined N/A 30.3 1026 N/A 0 0
5:54 am 05:54 undefined 38 3.3 25 -3.9 60 60 undefined N/A 30.33 1027 N/A 0 0
6:54 am 06:54 undefined 37 2.8 23 -5 57 57 undefined N/A 30.33 1027 N/A 0 0
7:54 am 07:54 undefined 37 2.8 18 -7.8 46 46 undefined N/A 30.39 1029 N/A 0 0
8:54 am 08:54 undefined 38 3.3 18 -7.8 44 44 undefined N/A 30.39 1029 N/A 0 0
9:54 am 09:54 undefined 39 3.9 17 -8.3 41 41 undefined N/A 30.42 1030 N/A 0 0
10:54 am 10:54 undefined 41 5 17 -8.3 38 38 undefined N/A 30.42 1030 N/A 0 0
11:54 am 11:54 undefined 41 5 16 -8.9 36 36 undefined N/A 30.42 1030 N/A 0 0
12:54 pm 12:54 undefined 42 5.6 17 -8.3 36 36 undefined N/A 30.39 1029 N/A 0 0
1:54 pm 13:54 undefined 41 5 16 -8.9 36 36 undefined N/A 30.39 1029 N/A 0 0
2:54 pm 14:54 undefined 40 4.4 15 -9.4 36 36 undefined N/A 30.39 1029 N/A 0 0
3:54 pm 15:54 undefined 40 4.4 16 -8.9 38 38 undefined N/A 30.39 1029 N/A 0 0
4:54 pm 16:54 undefined 39 3.9 15 -9.4 38 38 undefined N/A 30.42 1030 N/A 0 0
5:54 pm 17:54 undefined 38 3.3 15 -9.4 39 39 undefined N/A 30.42 1030 N/A 0 0
6:54 pm 18:54 undefined 37 2.8 15 -9.4 41 41 undefined N/A 30.45 1031 N/A 0 0
7:54 pm 19:54 undefined 36 2.2 16 -8.9 44 44 undefined N/A 30.45 1031 N/A 0 0
8:54 pm 20:54 undefined 34 1.1 16 -8.9 48 48 undefined N/A 30.45 1031 N/A 0 0
9:54 pm 21:54 undefined 34 1.1 15 -9.4 46 46 undefined N/A 30.45 1031 N/A 0 0
10:54 pm 22:54 undefined 33 0.6 15 -9.4 47 47 undefined N/A 30.48 1032 N/A 0 0
11:54 pm 23:54 undefined 33 0.6 14 -10 45 45 undefined N/A 30.45 1031 N/A 0 0

Powered by AerisWeather